GW3448 Weather Reports


Display with metric or nautical units.
time (UTC)temp
F
wind
direction
speed
MPH
gust
MPH
rain 1hr
in
rain 24hr
in
rain mn
in
humidity
%
barometer
mb
20260502163304 65 25 2.0 8.0 0.00 0.00 0.00 59 1013.6
20260502163203 64 294 4.0 8.0 0.00 0.00 0.00 59 1013.6
20260502163101 64 311 3.0 8.0 0.00 0.00 0.00 58 1013.6
20260502163002 64 281 3.0 8.0 0.00 0.00 0.00 58 1013.6
20260502162931 64 273 3.0 8.0 0.00 0.00 0.00 58 1013.6
20260502162919 64 256 4.0 8.0 0.00 0.00 0.00 58 1013.6
20260502162627 64 293 5.0 8.0 0.00 0.00 0.00 58 1013.5
20260502162612 64 279 4.0 8.0 0.00 0.00 0.00 58 1013.6
20260502162546 64 284 3.0 8.0 0.00 0.00 0.00 58 1013.6
20260502162533 64 285 2.0 7.0 0.00 0.00 0.00 59 1013.5
20260502162036 64 292 3.0 6.0 0.00 0.00 0.00 59 1013.6
20260502162013 64 293 2.0 6.0 0.00 0.00 0.00 59 1013.6
20260502161650 64 327 2.0 6.0 0.00 0.00 0.00 60 1013.6
20260502161616 64 300 2.0 8.0 0.00 0.00 0.00 61 1013.6
20260502161449 64 248 2.0 9.0 0.00 0.00 0.00 60 1013.5
20260502161420 64 327 3.0 9.0 0.00 0.00 0.00 60 1013.5
20260502161409 64 287 2.0 9.0 0.00 0.00 0.00 61 1013.6
20260502161047 63 286 3.0 9.0 0.00 0.00 0.00 60 1013.5
20260502160945 63 297 2.0 9.0 0.00 0.00 0.00 60 1013.5
20260502160844 63 345 4.0 9.0 0.00 0.00 0.00 60 1013.5
20260502160744 63 342 6.0 9.0 0.00 0.00 0.00 60 1013.5
20260502160643 63 278 6.0 9.0 0.00 0.00 0.00 60 1013.6
20260502160541 63 267 5.0 9.0 0.00 0.00 0.00 60 1013.5
20260502160441 63 267 4.0 8.0 0.00 0.00 0.00 61 1013.6
20260502160351 63 241 3.0 8.0 0.00 0.00 0.00 59 1013.5
20260502160336 63 261 3.0 7.0 0.00 0.00 0.00 60 1013.6
20260502160324 63 279 2.0 7.0 0.00 0.00 0.00 60 1013.6
20260502160313 63 246 2.0 6.0 0.00 0.00 0.00 61 1013.6
20260502152321 61 330 2.0 4.0 0.00 0.00 0.00 62 1013.4
20260502152004 61 0 2.0 6.0 0.00 0.00 0.00 62 1013.4
20260502151944 61 324 2.0 6.0 0.00 0.00 0.00 62 1013.4
20260502151921 61 333 2.0 6.0 0.00 0.00 0.00 62 1013.4
20260502151628 61 321 2.0 6.0 0.00 0.00 0.00 63 1013.4
20260502151614 61 346 3.0 6.0 0.00 0.00 0.00 63 1013.4
20260502151603 61 288 3.0 6.0 0.00 0.00 0.00 62 1013.5
20260502151202 61 272 2.0 6.0 0.00 0.00 0.00 62 1013.4
20260502151101 61 248 1.0 4.0 0.00 0.00 0.00 62 1013.5
20260502151045 61 262 1.0 4.0 0.00 0.00 0.00 62 1013.4
20260502151031 61 281 1.0 4.0 0.00 0.00 0.00 63 1013.4
20260502150706 61 286 1.0 5.0 0.00 0.00 0.00 63 1013.3
20260502150601 61 352 2.0 5.0 0.00 0.00 0.00 62 1013.3
20260502150528 61 325 2.0 5.0 0.00 0.00 0.00 62 1013.4
20260502150516 61 336 2.0 5.0 0.00 0.00 0.00 62 1013.3
20260502150452 61 342 2.0 5.0 0.00 0.00 0.00 62 1013.3
20260502150218 61 284 2.0 7.0 0.00 0.00 0.00 62 1013.3
20260502130528 56 228 0.0 0.0 0.00 0.00 0.00 72 1012.9
20260502130511 56 228 0.0 0.0 0.00 0.00 0.00 73 1012.8
20260502130500 56 228 0.0 0.0 0.00 0.00 0.00 73 1012.8
20260502130129 56 228 0.0 0.0 0.00 0.00 0.00 73 1012.8
20260502123814 56 228 0.0 2.0 0.00 0.00 0.00 70 1012.7
20260502123805 57 228 0.0 2.0 0.00 0.00 0.00 70 1012.8
20260502123753 57 228 0.0 2.0 0.00 0.00 0.00 70 1012.8
20260502123522 57 202 0.0 2.0 0.00 0.00 0.00 70 1012.8
20260502122932 57 188 1.0 2.0 0.00 0.00 0.00 69 1012.8
20260502122833 57 200 0.0 2.0 0.00 0.00 0.00 69 1012.8
20260502122739 57 229 0.0 2.0 0.00 0.00 0.00 69 1012.8
20260502122631 57 257 0.0 2.0 0.00 0.00 0.00 68 1012.8
20260502122601 57 257 0.0 2.0 0.00 0.00 0.00 68 1012.8
20260502122550 57 257 1.0 2.0 0.00 0.00 0.00 68 1012.8
20260502122238 57 256 1.0 3.0 0.00 0.00 0.00 68 1012.8
20260502122130 57 257 1.0 3.0 0.00 0.00 0.00 68 1012.8
20260502122030 57 259 1.0 3.0 0.00 0.00 0.00 68 1012.8
20260502121930 57 261 1.0 3.0 0.00 0.00 0.00 68 1012.8
20260502121830 57 260 0.0 3.0 0.00 0.00 0.00 68 1012.8
20260502121734 57 288 0.0 3.0 0.00 0.00 0.00 68 1012.8
20260502121631 57 288 0.0 3.0 0.00 0.00 0.00 68 1012.8
20260502121532 57 288 1.0 3.0 0.00 0.00 0.00 68 1012.8
20260502121506 57 288 2.0 3.0 0.00 0.00 0.00 68 1012.8
20260502121454 57 259 1.0 3.0 0.00 0.00 0.00 68 1012.8
20260502121130 57 265 1.0 2.0 0.00 0.00 0.00 68 1012.8
20260502121100 57 267 0.0 2.0 0.00 0.00 0.00 69 1012.8
20260502121048 57 229 0.0 2.0 0.00 0.00 0.00 69 1012.8
20260502121038 57 221 1.0 2.0 0.00 0.00 0.00 68 1012.8
20260502120753 57 253 1.0 2.0 0.00 0.00 0.00 68 1012.7
20260502120516 57 263 0.0 0.0 0.00 0.00 0.00 68 1012.7
20260502120505 57 263 0.0 1.0 0.00 0.00 0.00 68 1012.7
20260502120223 57 263 0.0 1.0 0.00 0.00 0.00 68 1012.7
20260502115901 57 263 0.0 1.0 0.00 0.00 0.00 69 1012.7
20260502115806 57 263 0.0 1.0 0.00 0.00 0.00 68 1012.8
20260502115731 57 263 0.0 1.0 0.00 0.00 0.00 68 1012.7
20260502115719 58 263 0.0 1.0 0.00 0.00 0.00 68 1012.7
20260502115402 58 263 0.0 1.0 0.00 0.00 0.00 68 1012.7
20260502115305 58 263 0.0 2.0 0.00 0.00 0.00 68 1012.7
20260502115202 58 263 0.0 2.0 0.00 0.00 0.00 68 1012.7
20260502115126 58 263 0.0 2.0 0.00 0.00 0.00 68 1012.7
20260502115114 58 262 0.0 2.0 0.00 0.00 0.00 68 1012.7
20260502114756 58 262 0.0 2.0 0.00 0.00 0.00 67 1012.8
20260502114655 58 261 0.0 2.0 0.00 0.00 0.00 67 1012.8
20260502114554 58 261 1.0 2.0 0.00 0.00 0.00 67 1012.8
20260502114454 58 265 1.0 2.0 0.00 0.00 0.00 67 1012.7
20260502114245 58 259 1.0 2.0 0.00 0.00 0.00 67 1012.8
20260502114142 58 254 0.0 2.0 0.00 0.00 0.00 67 1012.8
20260502114043 58 259 0.0 0.0 0.00 0.00 0.00 67 1012.8
20260502113940 58 259 0.0 0.0 0.00 0.00 0.00 67 1012.8
20260502113840 58 259 0.0 0.0 0.00 0.00 0.00 67 1012.8
20260502113735 58 259 0.0 0.0 0.00 0.00 0.00 67 1012.8
20260502113634 58 259 0.0 0.0 0.00 0.00 0.00 67 1012.8
20260502113530 58 259 0.0 2.0 0.00 0.00 0.00 67 1012.8
20260502113432 58 259 0.0 2.0 0.00 0.00 0.00 67 1012.8
20260502113329 58 259 0.0 2.0 0.00 0.00 0.00 67 1012.8
20260502113231 58 259 0.0 2.0 0.00 0.00 0.00 67 1012.8
20260502113131 58 259 0.0 2.0 0.00 0.00 0.00 67 1012.8
20260502113037 58 259 0.0 2.0 0.00 0.00 0.00 67 1012.8
20260502112930 58 259 0.0 2.0 0.00 0.00 0.00 67 1012.8
20260502112830 58 259 0.0 2.0 0.00 0.00 0.00 67 1012.7
20260502112730 58 259 0.0 2.0 0.00 0.00 0.00 67 1012.8
20260502112630 58 259 0.0 2.0 0.00 0.00 0.00 67 1012.7
20260502112603 58 257 0.0 1.0 0.00 0.00 0.00 67 1012.8
20260502112551 58 259 0.0 0.0 0.00 0.00 0.00 66 1012.7
20260502112230 58 259 0.0 0.0 0.00 0.00 0.00 67 1012.7
20260502112129 58 259 0.0 0.0 0.00 0.00 0.00 66 1012.7
20260502112030 58 259 0.0 0.0 0.00 0.00 0.00 66 1012.8
20260502111929 58 259 0.0 0.0 0.00 0.00 0.00 66 1012.7
20260502111831 58 259 0.0 0.0 0.00 0.00 0.00 66 1012.8
20260502111729 58 259 0.0 0.0 0.00 0.00 0.00 66 1012.8
20260502111630 58 259 0.0 0.0 0.00 0.00 0.00 66 1012.7
20260502111540 58 259 0.0 0.0 0.00 0.00 0.00 66 1012.8
20260502111529 58 259 0.0 0.0 0.00 0.00 0.00 66 1012.8
20260502111210 58 259 0.0 0.0 0.00 0.00 0.00 66 1012.8
20260502111105 58 259 0.0 0.0 0.00 0.00 0.00 67 1012.7
20260502111004 58 259 0.0 0.0 0.00 0.00 0.00 67 1012.8
20260502110902 58 259 0.0 0.0 0.00 0.00 0.00 67 1012.8
20260502110806 58 259 0.0 0.0 0.00 0.00 0.00 67 1012.8
20260502110712 58 259 0.0 0.0 0.00 0.00 0.00 66 1012.7
20260502110604 58 259 0.0 0.0 0.00 0.00 0.00 66 1012.8
20260502110501 58 259 0.0 0.0 0.00 0.00 0.00 66 1012.8
20260502110403 58 259 0.0 0.0 0.00 0.00 0.00 66 1012.7
20260502110303 58 259 0.0 0.0 0.00 0.00 0.00 66 1012.7
20260502110211 58 259 0.0 0.0 0.00 0.00 0.00 66 1012.7
20260502110104 58 259 0.0 0.0 0.00 0.00 0.00 66 1012.7
20260502110035 58 259 0.0 0.0 0.00 0.00 0.00 66 1012.7
20260502110023 58 259 0.0 0.0 0.00 0.00 0.00 66 1012.6
20260502105707 58 259 0.0 0.0 0.00 0.00 0.00 66 1012.6
20260502105602 58 259 0.0 0.0 0.00 0.00 0.00 66 1012.6
20260502105520 58 259 0.0 0.0 0.00 0.00 0.00 66 1012.6
20260502105509 58 259 0.0 0.0 0.00 0.00 0.00 66 1012.6
20260502105458 58 259 0.0 0.0 0.00 0.00 0.00 66 1012.6
20260502105219 58 259 0.0 0.0 0.00 0.00 0.00 66 1012.6
20260502104902 58 259 0.0 0.0 0.00 0.00 0.00 66 1012.6
20260502104843 58 259 0.0 0.0 0.00 0.00 0.00 66 1012.6
20260502104832 58 259 0.0 0.0 0.00 0.00 0.00 66 1012.6
20260502104503 58 259 0.0 0.0 0.00 0.00 0.00 66 1012.5
20260502104404 58 259 0.0 0.0 0.00 0.00 0.00 66 1012.5
20260502104304 58 259 0.0 0.0 0.00 0.00 0.00 66 1012.6
20260502104205 58 259 0.0 0.0 0.00 0.00 0.00 66 1012.6
20260502104102 58 259 0.0 0.0 0.00 0.00 0.00 66 1012.6
20260502104005 58 259 0.0 0.0 0.00 0.00 0.00 65 1012.6
20260502103904 58 259 0.0 0.0 0.00 0.00 0.00 65 1012.6
20260502103840 58 259 0.0 0.0 0.00 0.00 0.00 65 1012.6
20260502103831 58 259 0.0 0.0 0.00 0.00 0.00 65 1012.6
20260502103503 59 259 0.0 0.0 0.00 0.00 0.00 65 1012.6
20260502103404 59 259 0.0 0.0 0.00 0.00 0.00 64 1012.6
20260502103301 59 259 0.0 0.0 0.00 0.00 0.00 64 1012.6
20260502103205 59 259 0.0 0.0 0.00 0.00 0.00 64 1012.6
20260502103102 59 259 0.0 0.0 0.00 0.00 0.00 64 1012.6
20260502103007 59 259 0.0 0.0 0.00 0.00 0.00 64 1012.6
20260502102902 59 259 0.0 0.0 0.00 0.00 0.00 64 1012.6
20260502102801 59 259 0.0 0.0 0.00 0.00 0.00 64 1012.6
20260502102702 59 259 0.0 0.0 0.00 0.00 0.00 63 1012.6
20260502102602 59 259 0.0 0.0 0.00 0.00 0.00 63 1012.6
20260502102504 59 259 0.0 0.0 0.00 0.00 0.00 63 1012.6
20260502102402 59 259 0.0 0.0 0.00 0.00 0.00 63 1012.6
20260502102300 59 259 0.0 0.0 0.00 0.00 0.00 62 1012.5
20260502102245 59 259 0.0 0.0 0.00 0.00 0.00 62 1012.5
20260502102221 59 259 0.0 0.0 0.00 0.00 0.00 62 1012.5
20260502101807 59 259 0.0 0.0 0.00 0.00 0.00 62 1012.5
20260502101732 59 259 0.0 2.0 0.00 0.00 0.00 62 1012.5
20260502101713 59 259 0.0 2.0 0.00 0.00 0.00 62 1012.5
20260502101704 60 259 0.0 2.0 0.00 0.00 0.00 62 1012.5
20260502101643 60 259 0.0 2.0 0.00 0.00 0.00 62 1012.5
20260502101358 60 259 0.0 2.0 0.00 0.00 0.00 62 1012.6
20260502100910 60 264 1.0 2.0 0.00 0.00 0.00 62 1012.5
20260502100842 60 263 2.0 2.0 0.00 0.00 0.00 62 1012.5
20260502100304 60 261 1.0 3.0 0.00 0.00 0.00 62 1012.6
20260502100201 60 257 1.0 3.0 0.00 0.00 0.00 62 1012.6
20260502091411 60 236 0.0 4.0 0.00 0.00 0.00 63 1012.4
20260502091042 60 236 1.0 4.0 0.00 0.00 0.00 62 1012.4
20260502090936 60 236 1.0 4.0 0.00 0.00 0.00 62 1012.4
20260502090835 60 253 2.0 4.0 0.00 0.00 0.00 62 1012.4
20260502090736 60 255 2.0 4.0 0.00 0.00 0.00 62 1012.4
20260502090636 60 269 2.0 4.0 0.00 0.00 0.00 62 1012.4
20260502090533 60 265 2.0 4.0 0.00 0.00 0.00 63 1012.4
20260502090434 60 258 0.0 3.0 0.00 0.00 0.00 63 1012.4
20260502090330 60 258 0.0 3.0 0.00 0.00 0.00 63 1012.5
20260502090231 60 200 0.0 4.0 0.00 0.00 0.00 63 1012.5
20260502090131 60 200 1.0 4.0 0.00 0.00 0.00 63 1012.5
20260502071502 61 253 0.0 2.0 0.00 0.00 0.00 64 1012.5
20260502071403 61 254 0.0 2.0 0.00 0.00 0.00 64 1012.5
20260502071303 61 254 1.0 2.0 0.00 0.00 0.00 64 1012.5
20260502071244 61 257 1.0 2.0 0.00 0.00 0.00 63 1012.5
20260502071235 61 258 1.0 2.0 0.00 0.00 0.00 63 1012.5
20260502070904 61 261 1.0 2.0 0.00 0.00 0.00 63 1012.5
20260502070800 61 254 0.0 2.0 0.00 0.00 0.00 63 1012.5
20260502070704 61 234 0.0 2.0 0.00 0.00 0.00 63 1012.5
20260502070621 61 230 0.0 2.0 0.00 0.00 0.00 63 1012.5
20260502070601 62 230 0.0 2.0 0.00 0.00 0.00 62 1012.5
20260502070549 62 239 0.0 2.0 0.00 0.00 0.00 62 1012.5
20260502070319 62 226 0.0 3.0 0.00 0.00 0.00 62 1012.5
20260502070309 62 226 0.0 3.0 0.00 0.00 0.00 62 1012.5
20260502070030 62 240 1.0 3.0 0.00 0.00 0.00 62 1012.5
20260502065704 62 253 0.0 3.0 0.00 0.00 0.00 62 1012.5
20260502065602 62 240 1.0 3.0 0.00 0.00 0.00 62 1012.5
20260502065503 62 221 1.0 3.0 0.00 0.00 0.00 62 1012.5
20260502065403 62 221 2.0 3.0 0.00 0.00 0.00 62 1012.5
20260502065306 62 250 1.0 3.0 0.00 0.00 0.00 62 1012.5
20260502065201 62 244 0.0 2.0 0.00 0.00 0.00 62 1012.5
20260502065103 62 278 0.0 2.0 0.00 0.00 0.00 62 1012.5
20260502065001 62 278 0.0 2.0 0.00 0.00 0.00 62 1012.5
20260502064905 62 278 0.0 3.0 0.00 0.00 0.00 62 1012.5
20260502064803 62 275 0.0 3.0 0.00 0.00 0.00 62 1012.5
20260502064702 62 242 0.0 3.0 0.00 0.00 0.00 62 1012.5
20260502064600 62 251 0.0 3.0 0.00 0.00 0.00 62 1012.5
20260502064502 62 257 0.0 3.0 0.00 0.00 0.00 62 1012.5
20260502064426 62 259 1.0 3.0 0.00 0.00 0.00 62 1012.5
20260502064417 62 263 1.0 3.0 0.00 0.00 0.00 62 1012.6
20260502064109 62 264 0.0 3.0 0.00 0.00 0.00 62 1012.5
20260502064045 62 255 0.0 3.0 0.00 0.00 0.00 62 1012.5
20260502064034 62 252 0.0 3.0 0.00 0.00 0.00 62 1012.5
20260502063806 62 252 0.0 3.0 0.00 0.00 0.00 62 1012.5
20260502063455 62 252 0.0 3.0 0.00 0.00 0.00 61 1012.5
20260502063445 62 252 1.0 3.0 0.00 0.00 0.00 61 1012.5
20260502063434 62 252 2.0 3.0 0.00 0.00 0.00 61 1012.5
20260502063420 62 257 2.0 3.0 0.00 0.00 0.00 61 1012.5
20260502062830 62 252 0.0 3.0 0.00 0.00 0.00 62 1012.5
20260502062729 62 256 0.0 0.0 0.00 0.00 0.00 62 1012.5
20260502062646 62 256 0.0 0.0 0.00 0.00 0.00 62 1012.5
20260502062634 61 256 0.0 0.0 0.00 0.00 0.00 62 1012.5
20260502062616 61 256 0.0 0.0 0.00 0.00 0.00 62 1012.5
20260502062606 61 256 0.0 0.0 0.00 0.00 0.00 62 1012.5
20260502062031 61 256 0.0 0.0 0.00 0.00 0.00 63 1012.4
20260502061929 61 256 0.0 0.0 0.00 0.00 0.00 63 1012.5
20260502061830 61 256 0.0 0.0 0.00 0.00 0.00 63 1012.5
20260502061729 61 256 0.0 0.0 0.00 0.00 0.00 63 1012.5
20260502061632 61 256 0.0 0.0 0.00 0.00 0.00 63 1012.4
20260502061530 61 256 0.0 0.0 0.00 0.00 0.00 62 1012.5
20260502061429 61 256 0.0 0.0 0.00 0.00 0.00 62 1012.4
20260502061328 61 256 0.0 0.0 0.00 0.00 0.00 62 1012.5
20260502061228 61 256 0.0 0.0 0.00 0.00 0.00 62 1012.4
20260502061140 62 256 0.0 0.0 0.00 0.00 0.00 62 1012.4
20260502061127 62 256 0.0 0.0 0.00 0.00 0.00 62 1012.4
20260502061106 62 256 0.0 0.0 0.00 0.00 0.00 62 1012.4
20260502061052 62 256 0.0 0.0 0.00 0.00 0.00 62 1012.4
20260502060826 62 256 0.0 0.0 0.00 0.00 0.00 61 1012.4
20260502060804 62 256 0.0 0.0 0.00 0.00 0.00 61 1012.4
20260502060538 62 256 0.0 0.0 0.00 0.00 0.00 61 1012.3
20260502060311 62 256 0.0 0.0 0.00 0.00 0.00 61 1012.3
20260502060248 62 256 0.0 0.0 0.00 0.00 0.00 61 1012.3
20260502060239 62 256 0.0 0.0 0.00 0.00 0.00 61 1012.3
20260502060011 63 256 0.0 0.0 0.00 0.00 0.00 61 1012.3
20260502055743 63 256 0.0 2.0 0.00 0.00 0.00 60 1012.3
20260502055159 63 256 0.0 4.0 0.00 0.00 0.00 59 1012.4
20260502055058 63 256 0.0 4.0 0.00 0.00 0.00 59 1012.4
20260502055009 63 256 0.0 4.0 0.00 0.00 0.00 59 1012.4
20260502054955 63 256 0.0 4.0 0.00 0.00 0.00 59 1012.4
20260502054944 63 256 0.0 4.0 0.00 0.00 0.00 58 1012.4
20260502054714 63 256 3.0 4.0 0.00 0.00 0.00 58 1012.3
20260502054403 63 265 0.0 4.0 0.00 0.00 0.00 59 1012.3
20260502054351 62 257 0.0 0.0 0.00 0.00 0.00 59 1012.3
20260502054030 62 257 0.0 0.0 0.00 0.00 0.00 59 1012.4
20260502053930 62 257 0.0 1.0 0.00 0.00 0.00 60 1012.4
20260502053831 62 257 0.0 1.0 0.00 0.00 0.00 60 1012.5
20260502053730 62 257 0.0 1.0 0.00 0.00 0.00 60 1012.5
20260502053632 62 257 0.0 1.0 0.00 0.00 0.00 60 1012.4
20260502053531 62 257 0.0 1.0 0.00 0.00 0.00 61 1012.4
20260502053430 62 257 0.0 1.0 0.00 0.00 0.00 61 1012.4
20260502053333 63 257 0.0 1.0 0.00 0.00 0.00 61 1012.4
20260502053230 63 257 0.0 1.0 0.00 0.00 0.00 61 1012.4
20260502053129 63 257 0.0 2.0 0.00 0.00 0.00 61 1012.4
20260502053031 63 257 0.0 2.0 0.00 0.00 0.00 61 1012.4
20260502052930 63 234 0.0 2.0 0.00 0.00 0.00 61 1012.4
20260502052829 63 192 0.0 2.0 0.00 0.00 0.00 61 1012.4
20260502052729 63 192 0.0 2.0 0.00 0.00 0.00 61 1012.4
20260502052628 63 192 0.0 2.0 0.00 0.00 0.00 61 1012.4
20260502052527 63 192 0.0 2.0 0.00 0.00 0.00 61 1012.4
20260502052428 63 192 0.0 2.0 0.00 0.00 0.00 61 1012.4
20260502052354 63 192 1.0 2.0 0.00 0.00 0.00 60 1012.3
20260502052345 63 194 1.0 2.0 0.00 0.00 0.00 60 1012.3
20260502052020 63 202 0.0 2.0 0.00 0.00 0.00 60 1012.3
20260502051921 63 186 0.0 2.0 0.00 0.00 0.00 61 1012.4
20260502051819 63 186 0.0 2.0 0.00 0.00 0.00 60 1012.4
20260502051717 63 186 0.0 4.0 0.00 0.00 0.00 60 1012.4
20260502051603 63 186 0.0 4.0 0.00 0.00 0.00 60 1012.4
20260502051543 63 186 1.0 4.0 0.00 0.00 0.00 60 1012.4
20260502051522 63 186 1.0 4.0 0.00 0.00 0.00 60 1012.4
20260502051203 63 221 1.0 4.0 0.00 0.00 0.00 61 1012.4
20260502051143 64 213 1.0 4.0 0.00 0.00 0.00 61 1012.3
20260502051135 64 198 2.0 4.0 0.00 0.00 0.00 61 1012.3
20260502050802 64 159 1.0 3.0 0.00 0.00 0.00 61 1012.3
20260502050702 64 163 0.0 3.0 0.00 0.00 0.00 61 1012.3
20260502050603 64 203 0.0 2.0 0.00 0.00 0.00 61 1012.3
20260502050503 64 286 0.0 2.0 0.00 0.00 0.00 60 1012.3
20260502050402 64 285 0.0 2.0 0.00 0.00 0.00 60 1012.3
20260502050336 64 284 0.0 2.0 0.00 0.00 0.00 60 1012.3
20260502050327 64 284 1.0 2.0 0.00 0.00 0.00 60 1012.3
20260502050315 64 282 1.0 2.0 0.00 0.00 0.00 60 1012.2
20260502050303 64 275 0.0 2.0 0.00 0.00 0.00 60 1012.2
20260502045701 65 235 1.0 2.0 0.00 0.00 0.00 60 1012.4
20260502045606 65 235 1.0 2.0 0.00 0.00 0.00 60 1012.3
20260502045502 65 225 1.0 2.0 0.00 0.00 0.00 60 1012.3
20260502045403 65 201 1.0 1.0 0.00 0.00 0.00 60 1012.3
20260502045301 65 196 1.0 1.0 0.00 0.00 0.00 60 1012.4
20260502045202 65 175 0.0 1.0 0.00 0.00 0.00 60 1012.3
20260502045101 65 157 0.0 1.0 0.00 0.00 0.00 60 1012.3
20260502045003 65 183 0.0 2.0 0.00 0.00 0.00 60 1012.3
20260502044904 65 194 0.0 2.0 0.00 0.00 0.00 60 1012.3
20260502044802 65 194 0.0 2.0 0.00 0.00 0.00 60 1012.3
20260502044705 65 194 0.0 2.0 0.00 0.00 0.00 59 1012.2
20260502044603 65 194 0.0 2.0 0.00 0.00 0.00 59 1012.2
20260502044501 66 194 0.0 2.0 0.00 0.00 0.00 59 1012.2
20260502044433 66 194 0.0 2.0 0.00 0.00 0.00 59 1012.2
20260502044420 66 194 1.0 2.0 0.00 0.00 0.00 59 1012.2
20260502044142 66 194 0.0 2.0 0.00 0.00 0.00 59 1012.2
20260502044133 66 192 0.0 1.0 0.00 0.00 0.00 58 1012.3
20260502043830 66 192 0.0 2.0 0.00 0.00 0.00 58 1012.2
20260502043820 66 192 0.0 2.0 0.00 0.00 0.00 58 1012.2
20260502043501 66 192 0.0 2.0 0.00 0.00 0.00 58 1012.2
20260502043358 66 192 0.0 2.0 0.00 0.00 0.00 57 1012.2
20260502043256 67 184 0.0 2.0 0.00 0.00 0.00 57 1012.2
20260502043157 67 184 0.0 2.0 0.00 0.00 0.00 57 1012.2
20260502043056 67 184 1.0 2.0 0.00 0.00 0.00 57 1012.2
20260502042957 67 186 1.0 2.0 0.00 0.00 0.00 56 1012.2
20260502042854 67 186 0.0 2.0 0.00 0.00 0.00 57 1012.2
20260502042803 67 187 0.0 1.0 0.00 0.00 0.00 56 1012.1
20260502042752 67 186 0.0 1.0 0.00 0.00 0.00 56 1012.1
20260502042440 67 163 1.0 1.0 0.00 0.00 0.00 56 1012.1
20260502042351 67 168 0.0 1.0 0.00 0.00 0.00 55 1012.1
20260502042334 67 203 0.0 2.0 0.00 0.00 0.00 55 1012.1
20260502042324 68 203 0.0 2.0 0.00 0.00 0.00 54 1012.1
20260502042311 68 203 0.0 2.0 0.00 0.00 0.00 54 1012.1
20260502042305 68 203 0.0 2.0 0.00 0.00 0.00 55 1012.1
20260502042020 68 203 1.0 2.0 0.00 0.00 0.00 54 1012.0
20260502042008 68 202 1.0 2.0 0.00 0.00 0.00 54 1012.0
20260502041738 68 207 1.0 2.0 0.00 0.00 0.00 53 1012.0
20260502041716 68 206 0.0 2.0 0.00 0.00 0.00 54 1012.0
20260502041702 68 221 0.0 1.0 0.00 0.00 0.00 53 1012.0
20260502041218 69 234 0.0 1.0 0.00 0.00 0.00 53 1011.9
20260502041156 69 234 0.0 1.0 0.00 0.00 0.00 53 1011.9
20260502040708 69 229 0.0 1.0 0.00 0.00 0.00 52 1011.9
20260502040655 69 213 0.0 1.0 0.00 0.00 0.00 52 1011.9
20260502040418 69 213 0.0 1.0 0.00 0.00 0.00 52 1011.9
20260502040408 69 213 0.0 1.0 0.00 0.00 0.00 52 1011.8
20260502040139 70 215 0.0 1.0 0.00 0.00 0.00 51 1011.8
20260502035858 70 211 0.0 1.0 0.00 0.00 0.00 52 1011.8
20260502035847 70 204 0.0 1.0 0.00 0.00 0.00 51 1011.8
20260502035615 70 205 1.0 1.0 0.00 0.00 0.00 50 1011.8
20260502035554 70 205 1.0 1.0 0.00 0.00 0.00 50 1011.9
20260502035542 71 213 0.0 1.0 0.00 0.00 0.00 50 1011.9
20260502035054 71 230 0.0 1.0 0.00 0.00 0.00 49 1011.9
20260502034752 71 241 0.0 1.0 0.00 0.00 0.00 48 1011.9
20260502034741 71 244 0.0 1.0 0.00 0.00 0.00 49 1011.8
20260502034418 71 252 0.0 1.0 0.00 0.00 0.00 48 1011.9
20260502034316 71 257 0.0 1.0 0.00 0.00 0.00 48 1011.8
20260502034214 71 257 0.0 1.0 0.00 0.00 0.00 49 1011.8
20260502034114 72 260 0.0 1.0 0.00 0.00 0.00 49 1011.8
20260502034012 72 260 0.0 1.0 0.00 0.00 0.00 49 1011.8
20260502033921 72 280 0.0 1.0 0.00 0.00 0.00 47 1011.8
20260502033812 72 310 0.0 1.0 0.00 0.00 0.00 47 1011.8
20260502033736 72 310 0.0 1.0 0.00 0.00 0.00 47 1011.8
20260502033722 72 310 0.0 1.0 0.00 0.00 0.00 47 1011.8
20260502033401 72 310 0.0 1.0 0.00 0.00 0.00 47 1011.8
20260502033302 73 310 0.0 1.0 0.00 0.00 0.00 47 1011.7
20260502033229 73 310 0.0 1.0 0.00 0.00 0.00 47 1011.7
20260502033219 73 312 0.0 0.0 0.00 0.00 0.00 46 1011.7
20260502032940 73 312 0.0 0.0 0.00 0.00 0.00 46 1011.7
20260502032919 73 312 0.0 0.0 0.00 0.00 0.00 45 1011.7
20260502032601 73 312 0.0 0.0 0.00 0.00 0.00 45 1011.7
20260502032504 74 312 0.0 0.0 0.00 0.00 0.00 45 1011.7
20260502032415 74 312 0.0 0.0 0.00 0.00 0.00 44 1011.7
20260502032332 74 312 0.0 0.0 0.00 0.00 0.00 44 1011.7
20260502032321 74 312 0.0 0.0 0.00 0.00 0.00 44 1011.7
20260502032001 74 312 0.0 0.0 0.00 0.00 0.00 43 1011.7
20260502031913 74 312 0.0 1.0 0.00 0.00 0.00 44 1011.6
20260502031800 74 312 0.0 1.0 0.00 0.00 0.00 42 1011.7
20260502031731 74 312 0.0 1.0 0.00 0.00 0.00 42 1011.6
20260502031720 74 312 0.0 1.0 0.00 0.00 0.00 43 1011.6
20260502031407 75 312 0.0 1.0 0.00 0.00 0.00 42 1011.6
20260502031313 75 312 0.0 1.0 0.00 0.00 0.00 42 1011.6
20260502031304 75 312 0.0 1.0 0.00 0.00 0.00 43 1011.6
20260502031008 75 315 0.0 1.0 0.00 0.00 0.00 42 1011.6
20260502030945 75 317 0.0 1.0 0.00 0.00 0.00 41 1011.6
20260502030632 76 317 0.0 1.0 0.00 0.00 0.00 41 1011.6
20260502030529 76 317 0.0 1.0 0.00 0.00 0.00 42 1011.5
20260502030510 76 317 0.0 1.0 0.00 0.00 0.00 40 1011.5
20260502030451 76 317 0.0 1.0 0.00 0.00 0.00 40 1011.5
20260502030129 76 317 0.0 1.0 0.00 0.00 0.00 39 1011.5
20260502030029 76 317 0.0 1.0 0.00 0.00 0.00 39 1011.5
20260502025925 76 317 0.0 1.0 0.00 0.00 0.00 39 1011.5
20260502025826 76 317 0.0 1.0 0.00 0.00 0.00 39 1011.5
20260502025724 76 317 0.0 1.0 0.00 0.00 0.00 39 1011.5
20260502025618 76 317 0.0 1.0 0.00 0.00 0.00 38 1011.5
20260502025519 76 317 0.0 1.0 0.00 0.00 0.00 38 1011.4
20260502025451 77 317 0.0 1.0 0.00 0.00 0.00 38 1011.5
20260502025429 77 317 0.0 1.0 0.00 0.00 0.00 38 1011.5
20260502025110 77 317 0.0 1.0 0.00 0.00 0.00 37 1011.5
20260502025009 77 319 0.0 1.0 0.00 0.00 0.00 37 1011.6
20260502024909 77 340 0.0 1.0 0.00 0.00 0.00 37 1011.5
20260502024810 77 340 0.0 1.0 0.00 0.00 0.00 37 1011.5
20260502024706 77 340 0.0 1.0 0.00 0.00 0.00 37 1011.5
20260502024605 77 340 0.0 1.0 0.00 0.00 0.00 37 1011.5
20260502024529 77 340 0.0 1.0 0.00 0.00 0.00 37 1011.5
20260502024514 77 340 0.0 1.0 0.00 0.00 0.00 37 1011.5
20260502024452 77 340 0.0 1.0 0.00 0.00 0.00 36 1011.5
20260502024222 77 342 0.0 1.0 0.00 0.00 0.00 36 1011.4
20260502023905 77 342 0.0 1.0 0.00 0.00 0.00 36 1011.4
20260502023802 77 332 0.0 2.0 0.00 0.00 0.00 36 1011.4
20260502023734 78 332 1.0 2.0 0.00 0.00 0.00 36 1011.4
20260502023722 78 332 1.0 2.0 0.00 0.00 0.00 36 1011.4
20260502023402 78 330 0.0 2.0 0.00 0.00 0.00 36 1011.4
20260502023301 78 305 0.0 2.0 0.00 0.00 0.00 36 1011.4
20260502023202 78 305 0.0 2.0 0.00 0.00 0.00 36 1011.4
20260502023102 78 313 0.0 2.0 0.00 0.00 0.00 35 1011.4
20260502023004 78 313 1.0 3.0 0.00 0.00 0.00 35 1011.4
20260502022904 78 313 1.0 3.0 0.00 0.00 0.00 35 1011.4
20260502022803 78 310 1.0 3.0 0.00 0.00 0.00 35 1011.4
20260502022701 78 9 1.0 3.0 0.00 0.00 0.00 35 1011.4
20260502022603 78 22 1.0 3.0 0.00 0.00 0.00 35 1011.4
20260502022501 78 352 1.0 3.0 0.00 0.00 0.00 34 1011.3
20260502022405 78 5 1.0 3.0 0.00 0.00 0.00 35 1011.4
20260502022300 78 5 2.0 3.0 0.00 0.00 0.00 34 1011.4
20260502022203 78 5 1.0 3.0 0.00 0.00 0.00 34 1011.4
20260502022101 78 5 1.0 3.0 0.00 0.00 0.00 34 1011.4
20260502022001 78 352 1.0 2.0 0.00 0.00 0.00 34 1011.4
20260502021902 78 352 1.0 3.0 0.00 0.00 0.00 34 1011.4
20260502021801 78 336 1.0 3.0 0.00 0.00 0.00 34 1011.4
20260502021701 78 11 1.0 3.0 0.00 0.00 0.00 35 1011.4
20260502021602 78 352 1.0 3.0 0.00 0.00 0.00 34 1011.4
20260502021507 78 19 1.0 3.0 0.00 0.00 0.00 34 1011.4
20260502021442 78 0 1.0 3.0 0.00 0.00 0.00 34 1011.4
20260502021420 79 334 1.0 3.0 0.00 0.00 0.00 34 1011.5
20260502021103 79 0 1.0 3.0 0.00 0.00 0.00 34 1011.4
20260502021001 79 352 1.0 3.0 0.00 0.00 0.00 34 1011.4
20260502020902 79 352 1.0 3.0 0.00 0.00 0.00 34 1011.4
20260502020801 79 0 1.0 3.0 0.00 0.00 0.00 34 1011.5
20260502020733 79 9 1.0 3.0 0.00 0.00 0.00 34 1011.4
20260502020722 79 344 1.0 3.0 0.00 0.00 0.00 34 1011.4
20260502020401 79 352 1.0 3.0 0.00 0.00 0.00 34 1011.4
20260502020301 79 350 1.0 3.0 0.00 0.00 0.00 34 1011.4
20260502020201 79 23 2.0 3.0 0.00 0.00 0.00 34 1011.4
20260502020003 79 5 1.0 4.0 0.00 0.00 0.00 33 1011.5
20260502015904 79 336 2.0 4.0 0.00 0.00 0.00 34 1011.5
20260502015803 79 336 2.0 4.0 0.00 0.00 0.00 34 1011.5
20260502015701 79 328 2.0 5.0 0.00 0.00 0.00 34 1011.5
20260502015635 79 25 1.0 5.0 0.00 0.00 0.00 33 1011.5
20260502015622 79 339 2.0 5.0 0.00 0.00 0.00 34 1011.5
20260502015305 79 5 2.0 5.0 0.00 0.00 0.00 33 1011.5
20260502015202 79 35 2.0 5.0 0.00 0.00 0.00 33 1011.5
20260502015104 79 307 2.0 5.0 0.00 0.00 0.00 33 1011.5
20260502015045 79 0 2.0 5.0 0.00 0.00 0.00 33 1011.5
20260502015034 79 0 2.0 5.0 0.00 0.00 0.00 33 1011.5
20260502014702 80 324 2.0 4.0 0.00 0.00 0.00 33 1011.5
20260502014602 80 294 1.0 4.0 0.00 0.00 0.00 33 1011.5
20260502014536 80 338 1.0 4.0 0.00 0.00 0.00 33 1011.5
20260502014525 80 327 2.0 4.0 0.00 0.00 0.00 32 1011.5
20260502014153 80 338 2.0 4.0 0.00 0.00 0.00 32 1011.5
20260502014052 80 11 2.0 3.0 0.00 0.00 0.00 32 1011.5
20260502013958 80 302 1.0 3.0 0.00 0.00 0.00 32 1011.5
20260502013851 80 308 1.0 3.0 0.00 0.00 0.00 32 1011.5
20260502013750 80 314 1.0 3.0 0.00 0.00 0.00 32 1011.5
20260502013650 80 343 1.0 3.0 0.00 0.00 0.00 31 1011.5
20260502013619 80 296 1.0 3.0 0.00 0.00 0.00 32 1011.6
20260502013606 80 312 2.0 3.0 0.00 0.00 0.00 32 1011.5
20260502013316 80 316 2.0 6.0 0.00 0.00 0.00 32 1011.6
20260502013304 80 340 2.0 6.0 0.00 0.00 0.00 32 1011.6
20260502012941 80 11 1.0 6.0 0.00 0.00 0.00 31 1011.6
20260502012840 80 5 1.0 6.0 0.00 0.00 0.00 32 1011.7
20260502012731 80 271 2.0 6.0 0.00 0.00 0.00 32 1011.7
20260502012630 80 5 2.0 6.0 0.00 0.00 0.00 32 1011.7
20260502012530 80 26 2.0 6.0 0.00 0.00 0.00 32 1011.7
20260502012432 80 298 1.0 4.0 0.00 0.00 0.00 32 1011.7
20260502012331 80 302 2.0 4.0 0.00 0.00 0.00 32 1011.7
20260502012231 81 311 2.0 4.0 0.00 0.00 0.00 31 1011.7
20260502012158 81 331 2.0 3.0 0.00 0.00 0.00 31 1011.7
20260502012148 81 313 1.0 3.0 0.00 0.00 0.00 32 1011.7
20260502012136 81 331 1.0 3.0 0.00 0.00 0.00 32 1011.7
20260502011849 81 331 1.0 5.0 0.00 0.00 0.00 32 1011.7
20260502011529 81 329 1.0 5.0 0.00 0.00 0.00 31 1011.8
20260502011455 81 347 2.0 6.0 0.00 0.00 0.00 32 1011.8
20260502011440 81 352 2.0 6.0 0.00 0.00 0.00 31 1011.7
20260502011417 81 317 2.0 6.0 0.00 0.00 0.00 31 1011.8
20260502011403 81 301 2.0 6.0 0.00 0.00 0.00 31 1011.9
20260502011353 81 302 2.0 6.0 0.00 0.00 0.00 31 1011.8
20260502011120 81 292 4.0 6.0 0.00 0.00 0.00 31 1011.9
20260502010529 81 17 4.0 6.0 0.00 0.00 0.00 30 1011.9
20260502010429 81 340 2.0 6.0 0.00 0.00 0.00 31 1011.9
20260502010329 81 319 1.0 5.0 0.00 0.00 0.00 32 1012.0
20260502010229 81 286 2.0 5.0 0.00 0.00 0.00 32 1012.0
20260502010137 81 318 2.0 5.0 0.00 0.00 0.00 31 1012.0
20260502010122 81 352 2.0 5.0 0.00 0.00 0.00 31 1012.0
20260502010110 81 306 2.0 7.0 0.00 0.00 0.00 31 1012.0
20260502010056 81 332 2.0 7.0 0.00 0.00 0.00 31 1012.0
20260502005815 81 286 3.0 7.0 0.00 0.00 0.00 30 1012.0
20260502005542 81 317 3.0 7.0 0.00 0.00 0.00 31 1012.0
20260502005216 81 273 2.0 7.0 0.00 0.00 0.00 31 1012.0
20260502005116 82 333 2.0 7.0 0.00 0.00 0.00 31 1012.0
20260502005015 82 309 3.0 7.0 0.00 0.00 0.00 30 1012.0
20260502004915 82 351 3.0 5.0 0.00 0.00 0.00 29 1012.0
20260502004816 82 344 2.0 5.0 0.00 0.00 0.00 30 1012.0
20260502004712 82 352 2.0 5.0 0.00 0.00 0.00 30 1012.0
20260502004611 82 329 2.0 4.0 0.00 0.00 0.00 29 1012.0
20260502004512 82 294 2.0 4.0 0.00 0.00 0.00 29 1012.0
20260502004410 82 327 2.0 4.0 0.00 0.00 0.00 28 1012.0
20260502004315 82 342 2.0 4.0 0.00 0.00 0.00 28 1012.0
20260502004208 82 329 2.0 4.0 0.00 0.00 0.00 28 1012.0
20260502004108 82 0 3.0 4.0 0.00 0.00 0.00 28 1012.0
20260502004008 83 332 3.0 4.0 0.00 0.00 0.00 28 1012.0
20260502003910 83 333 2.0 4.0 0.00 0.00 0.00 28 1012.0
20260502003814 83 308 1.0 4.0 0.00 0.00 0.00 27 1012.0
20260502003701 83 304 1.0 4.0 0.00 0.00 0.00 27 1012.0
20260502003606 83 300 1.0 4.0 0.00 0.00 0.00 27 1012.0
20260502003501 83 290 2.0 4.0 0.00 0.00 0.00 26 1012.0
20260502003405 83 11 2.0 4.0 0.00 0.00 0.00 26 1012.1
20260502003310 83 0 2.0 4.0 0.00 0.00 0.00 26 1012.0
20260502003204 83 5 2.0 3.0 0.00 0.00 0.00 26 1012.1
20260502003101 83 339 2.0 3.0 0.00 0.00 0.00 25 1012.1
20260502003003 83 5 1.0 3.0 0.00 0.00 0.00 26 1012.1
20260502002904 83 347 0.0 3.0 0.00 0.00 0.00 25 1012.1
20260502002811 83 323 1.0 3.0 0.00 0.00 0.00 26 1012.1
20260502002701 83 352 2.0 3.0 0.00 0.00 0.00 25 1012.1
20260502002631 83 352 2.0 3.0 0.00 0.00 0.00 26 1012.1
20260502002620 83 43 1.0 3.0 0.00 0.00 0.00 26 1012.2
20260502002306 83 292 1.0 3.0 0.00 0.00 0.00 27 1012.1
20260502002201 83 325 1.0 3.0 0.00 0.00 0.00 27 1012.2
20260502002101 83 304 1.0 3.0 0.00 0.00 0.00 27 1012.2
20260502002001 83 351 1.0 3.0 0.00 0.00 0.00 27 1012.1
20260502001905 83 342 1.0 3.0 0.00 0.00 0.00 27 1012.2
20260502001808 83 340 2.0 3.0 0.00 0.00 0.00 27 1012.1
20260502001702 83 234 1.0 4.0 0.00 0.00 0.00 26 1012.2
20260502001633 83 236 1.0 4.0 0.00 0.00 0.00 27 1012.1
20260502001618 83 305 1.0 4.0 0.00 0.00 0.00 27 1012.2
20260502001327 83 273 1.0 5.0 0.00 0.00 0.00 27 1012.2
20260502001304 83 286 0.0 5.0 0.00 0.00 0.00 26 1012.2
20260502001252 83 112 0.0 5.0 0.00 0.00 0.00 27 1012.2
20260502001240 83 312 1.0 5.0 0.00 0.00 0.00 26 1012.2
20260502000653 83 22 3.0 5.0 0.00 0.00 0.00 27 1012.2
20260502000551 83 11 3.0 6.0 0.00 0.00 0.00 27 1012.2
20260502000450 83 352 3.0 6.0 0.00 0.00 0.00 28 1012.2
20260502000349 83 13 3.0 6.0 0.00 0.00 0.00 27 1012.2
20260502000310 83 349 3.0 6.0 0.00 0.00 0.00 27 1012.2
20260502000247 83 352 3.0 6.0 0.00 0.00 0.00 27 1012.2
20260502000233 83 336 3.0 6.0 0.00 0.00 0.00 28 1012.2
20260502000220 83 272 2.0 6.0 0.00 0.00 0.00 27 1012.2
20260501235938 83 317 2.0 6.0 0.00 0.00 0.00 27 1012.2
20260501235703 83 268 1.0 5.0 0.00 0.00 0.00 28 1012.2
20260501235402 83 270 3.0 5.0 0.00 0.00 0.00 26 1012.2
20260501235339 83 259 3.0 5.0 0.00 0.00 0.00 26 1012.2
20260501235328 83 242 3.0 5.0 0.00 0.00 0.00 26 1012.2
20260501235056 83 284 2.0 5.0 0.00 0.00 0.00 27 1012.2
20260501234733 83 309 3.0 6.0 0.00 0.00 0.00 27 1012.3
20260501234629 83 321 2.0 6.0 0.00 0.00 0.00 27 1012.3
20260501234530 83 294 1.0 6.0 0.00 0.00 0.00 27 1012.3
20260501234429 83 56 1.0 6.0 0.00 0.00 0.00 27 1012.3
20260501234332 83 32 2.0 6.0 0.00 0.00 0.00 28 1012.3
20260501234230 83 5 2.0 6.0 0.00 0.00 0.00 27 1012.3
20260501234125 83 352 3.0 6.0 0.00 0.00 0.00 27 1012.3
20260501234023 83 42 3.0 6.0 0.00 0.00 0.00 27 1012.3
20260501233924 83 88 1.0 6.0 0.00 0.00 0.00 28 1012.3
20260501233822 83 55 0.0 6.0 0.00 0.00 0.00 28 1012.3
20260501233721 83 346 0.0 6.0 0.00 0.00 0.00 28 1012.3
20260501233621 83 304 1.0 6.0 0.00 0.00 0.00 30 1012.3
20260501233521 83 302 2.0 6.0 0.00 0.00 0.00 29 1012.3
20260501233454 83 346 3.0 6.0 0.00 0.00 0.00 29 1012.3
20260501233444 83 302 3.0 6.0 0.00 0.00 0.00 28 1012.3
20260501233117 83 266 2.0 6.0 0.00 0.00 0.00 28 1012.3
20260501233011 83 276 2.0 6.0 0.00 0.00 0.00 28 1012.3
20260501232911 83 292 2.0 5.0 0.00 0.00 0.00 29 1012.3
20260501232810 83 284 2.0 5.0 0.00 0.00 0.00 28 1012.4
20260501232711 83 292 3.0 5.0 0.00 0.00 0.00 28 1012.4
20260501232609 83 352 3.0 5.0 0.00 0.00 0.00 29 1012.4
20260501232513 83 311 3.0 5.0 0.00 0.00 0.00 29 1012.4
20260501232408 83 326 3.0 5.0 0.00 0.00 0.00 27 1012.4
20260501232309 83 5 2.0 7.0 0.00 0.00 0.00 27 1012.4
20260501232206 83 34 2.0 7.0 0.00 0.00 0.00 29 1012.4
20260501232104 83 18 2.0 7.0 0.00 0.00 0.00 29 1012.4
20260501232002 83 34 2.0 7.0 0.00 0.00 0.00 29 1012.4
20260501231904 83 81 2.0 7.0 0.00 0.00 0.00 29 1012.4
20260501231805 83 63 2.0 7.0 0.00 0.00 0.00 28 1012.4
20260501231735 83 40 2.0 7.0 0.00 0.00 0.00 29 1012.4
20260501231722 83 49 2.0 7.0 0.00 0.00 0.00 29 1012.4
20260501231402 83 346 3.0 6.0 0.00 0.00 0.00 29 1012.5
20260501231303 82 352 3.0 6.0 0.00 0.00 0.00 30 1012.5
20260501231201 83 26 3.0 6.0 0.00 0.00 0.00 29 1012.6
20260501231102 82 288 4.0 5.0 0.00 0.00 0.00 28 1012.5
20260501231001 83 334 3.0 5.0 0.00 0.00 0.00 28 1012.5
20260501230903 83 347 2.0 5.0 0.00 0.00 0.00 28 1012.5
20260501230801 83 329 2.0 5.0 0.00 0.00 0.00 29 1012.6
20260501230702 83 337 3.0 5.0 0.00 0.00 0.00 29 1012.6
20260501230601 83 67 2.0 5.0 0.00 0.00 0.00 29 1012.6
20260501230502 83 5 1.0 6.0 0.00 0.00 0.00 27 1012.6
20260501230401 82 352 1.0 6.0 0.00 0.00 0.00 27 1012.6
20260501230346 82 89 1.0 6.0 0.00 0.00 0.00 28 1012.6
20260501230321 82 59 2.0 6.0 0.00 0.00 0.00 27 1012.6
20260501230004 82 74 2.0 6.0 0.00 0.00 0.00 29 1012.7
20260501225902 82 69 2.0 6.0 0.00 0.00 0.00 28 1012.7
20260501225755 82 109 3.0 6.0 0.00 0.00 0.00 28 1012.7
20260501225656 82 52 3.0 6.0 0.00 0.00 0.00 27 1012.8
20260501225554 82 85 2.0 6.0 0.00 0.00 0.00 26 1012.8
20260501225454 82 82 2.0 5.0 0.00 0.00 0.00 28 1012.8
20260501225435 82 69 2.0 5.0 0.00 0.00 0.00 29 1012.9
20260501225422 82 64 3.0 5.0 0.00 0.00 0.00 29 1012.9
20260501225051 82 64 3.0 5.0 0.00 0.00 0.00 28 1012.9
20260501224952 82 22 3.0 5.0 0.00 0.00 0.00 29 1013.0
20260501224850 82 90 2.0 5.0 0.00 0.00 0.00 30 1012.9
20260501224749 82 10 2.0 5.0 0.00 0.00 0.00 31 1013.0
20260501224650 82 11 1.0 5.0 0.00 0.00 0.00 29 1013.0
20260501224547 82 96 2.0 5.0 0.00 0.00 0.00 29 1013.0
20260501224447 82 342 2.0 5.0 0.00 0.00 0.00 31 1013.1
20260501224345 82 76 3.0 5.0 0.00 0.00 0.00 29 1013.1
20260501224244 82 88 3.0 5.0 0.00 0.00 0.00 30 1013.1
20260501224144 82 19 3.0 5.0 0.00 0.00 0.00 31 1013.2
20260501224046 82 103 2.0 7.0 0.00 0.00 0.00 30 1013.1
20260501223944 82 351 2.0 7.0 0.00 0.00 0.00 30 1013.1
20260501223839 82 298 2.0 7.0 0.00 0.00 0.00 29 1013.1
20260501223738 82 309 2.0 7.0 0.00 0.00 0.00 30 1013.1
20260501223637 82 322 2.0 7.0 0.00 0.00 0.00 31 1013.1
20260501223535 82 317 2.0 7.0 0.00 0.00 0.00 30 1013.2
20260501223436 82 5 2.0 7.0 0.00 0.00 0.00 29 1013.2
20260501223334 82 5 2.0 7.0 0.00 0.00 0.00 29 1013.2
20260501223234 82 57 3.0 7.0 0.00 0.00 0.00 32 1013.2
20260501223132 82 26 4.0 7.0 0.00 0.00 0.00 31 1013.2
20260501223057 82 0 3.0 5.0 0.00 0.00 0.00 31 1013.2
20260501223045 82 96 2.0 4.0 0.00 0.00 0.00 32 1013.2
20260501223033 81 123 2.0 7.0 0.00 0.00 0.00 31 1013.2
20260501222749 81 0 2.0 7.0 0.00 0.00 0.00 30 1013.2
20260501222430 81 352 1.0 7.0 0.00 0.00 0.00 30 1013.3
20260501222329 81 5 2.0 7.0 0.00 0.00 0.00 30 1013.3
20260501222230 81 0 3.0 7.0 0.00 0.00 0.00 30 1013.4
20260501222129 81 46 3.0 7.0 0.00 0.00 0.00 32 1013.4
20260501222110 81 63 3.0 7.0 0.00 0.00 0.00 30 1013.4
20260501222058 81 61 3.0 7.0 0.00 0.00 0.00 30 1013.4
20260501222045 81 52 2.0 9.0 0.00 0.00 0.00 31 1013.4
20260501222030 81 350 2.0 9.0 0.00 0.00 0.00 31 1013.5
20260501221748 81 352 3.0 9.0 0.00 0.00 0.00 31 1013.5
20260501221517 81 0 3.0 9.0 0.00 0.00 0.00 31 1013.5
20260501221236 81 65 3.0 9.0 0.00 0.00 0.00 30 1013.6
20260501221225 81 53 3.0 9.0 0.00 0.00 0.00 31 1013.6
20260501220950 81 5 2.0 8.0 0.00 0.00 0.00 30 1013.6
20260501220628 81 84 2.0 8.0 0.00 0.00 0.00 30 1013.6
20260501220531 81 87 3.0 8.0 0.00 0.00 0.00 30 1013.6
20260501220431 81 14 3.0 8.0 0.00 0.00 0.00 31 1013.6
20260501220331 81 352 3.0 8.0 0.00 0.00 0.00 32 1013.6
20260501220232 81 38 4.0 8.0 0.00 0.00 0.00 32 1013.7
20260501220129 81 0 4.0 8.0 0.00 0.00 0.00 31 1013.7
20260501220030 81 332 2.0 8.0 0.00 0.00 0.00 31 1013.7
20260501215929 81 40 1.0 7.0 0.00 0.00 0.00 30 1013.8
20260501215829 81 127 1.0 7.0 0.00 0.00 0.00 32 1013.7
20260501215729 81 5 2.0 8.0 0.00 0.00 0.00 31 1013.8
20260501215639 81 309 2.0 8.0 0.00 0.00 0.00 32 1013.9
20260501215622 81 338 1.0 8.0 0.00 0.00 0.00 31 1013.8
20260501215609 81 89 2.0 8.0 0.00 0.00 0.00 31 1013.9
20260501215557 81 88 2.0 8.0 0.00 0.00 0.00 34 1013.9
20260501215546 81 119 2.0 8.0 0.00 0.00 0.00 32 1014.0
20260501215524 81 103 3.0 8.0 0.00 0.00 0.00 31 1014.0
20260501215512 80 90 3.0 8.0 0.00 0.00 0.00 31 1014.0
20260501215019 80 5 2.0 7.0 0.00 0.00 0.00 31 1014.1
20260501214429 80 61 1.0 5.0 0.00 0.00 0.00 33 1014.1
20260501214330 80 182 1.0 5.0 0.00 0.00 0.00 32 1014.1
20260501214230 79 28 1.0 5.0 0.00 0.00 0.00 33 1014.1
20260501214124 79 299 2.0 6.0 0.00 0.00 0.00 31 1014.1
20260501214023 79 13 3.0 6.0 0.00 0.00 0.00 31 1014.2
20260501213923 79 16 3.0 6.0 0.00 0.00 0.00 32 1014.2
20260501213822 79 284 3.0 6.0 0.00 0.00 0.00 31 1014.2
20260501213721 79 342 2.0 6.0 0.00 0.00 0.00 33 1014.2
20260501213621 79 0 2.0 6.0 0.00 0.00 0.00 32 1014.2
20260501213520 79 295 2.0 6.0 0.00 0.00 0.00 32 1014.2
20260501213418 79 13 2.0 6.0 0.00 0.00 0.00 32 1014.3
20260501213318 79 22 3.0 6.0 0.00 0.00 0.00 32 1014.3
20260501213258 79 49 2.0 6.0 0.00 0.00 0.00 32 1014.3
20260501213235 79 5 2.0 6.0 0.00 0.00 0.00 33 1014.3
20260501212916 79 349 4.0 6.0 0.00 0.00 0.00 33 1014.3
20260501212815 79 60 3.0 6.0 0.00 0.00 0.00 33 1014.3
20260501212715 79 53 2.0 6.0 0.00 0.00 0.00 33 1014.4
20260501212646 79 98 3.0 6.0 0.00 0.00 0.00 32 1014.4
20260501212632 79 89 3.0 6.0 0.00 0.00 0.00 32 1014.4
20260501212312 80 42 2.0 6.0 0.00 0.00 0.00 32 1014.5
20260501212210 80 5 2.0 6.0 0.00 0.00 0.00 32 1014.5
20260501212112 79 332 2.0 6.0 0.00 0.00 0.00 32 1014.4
20260501212009 80 40 2.0 6.0 0.00 0.00 0.00 32 1014.5
20260501211908 79 39 2.0 6.0 0.00 0.00 0.00 32 1014.5
20260501211807 79 76 1.0 6.0 0.00 0.00 0.00 34 1014.5
20260501211707 79 140 1.0 6.0 0.00 0.00 0.00 33 1014.5
20260501211633 79 205 3.0 6.0 0.00 0.00 0.00 33 1014.5
20260501211618 79 89 1.0 6.0 0.00 0.00 0.00 32 1014.5
20260501211606 79 128 1.0 5.0 0.00 0.00 0.00 35 1014.5
20260501211333 79 343 2.0 5.0 0.00 0.00 0.00 32 1014.5
20260501211004 79 70 3.0 5.0 0.00 0.00 0.00 35 1014.6
20260501210902 79 75 2.0 5.0 0.00 0.00 0.00 35 1014.7
20260501210801 78 78 1.0 7.0 0.00 0.00 0.00 34 1014.7
20260501210724 78 65 2.0 7.0 0.00 0.00 0.00 34 1014.7
20260501210700 78 169 2.0 7.0 0.00 0.00 0.00 34 1014.7
20260501210648 78 86 1.0 7.0 0.00 0.00 0.00 35 1014.7
20260501210417 78 352 2.0 7.0 0.00 0.00 0.00 36 1014.7
20260501210406 78 5 3.0 7.0 0.00 0.00 0.00 36 1014.7
20260501210343 78 55 4.0 7.0 0.00 0.00 0.00 36 1014.8
20260501205800 78 350 3.0 9.0 0.00 0.00 0.00 37 1014.8
20260501205659 78 13 3.0 9.0 0.00 0.00 0.00 37 1014.7
20260501205559 77 281 3.0 9.0 0.00 0.00 0.00 37 1014.8
20260501205520 77 318 2.0 9.0 0.00 0.00 0.00 37 1014.8
20260501205507 77 257 2.0 9.0 0.00 0.00 0.00 36 1014.7
20260501205457 78 271 3.0 9.0 0.00 0.00 0.00 37 1014.8
20260501205444 78 277 4.0 9.0 0.00 0.00 0.00 37 1014.9
20260501204854 78 0 4.0 9.0 0.00 0.00 0.00 37 1014.9
20260501204754 78 317 3.0 7.0 0.00 0.00 0.00 37 1014.9
20260501204736 77 298 2.0 5.0 0.00 0.00 0.00 38 1014.9
20260501204713 77 17 1.0 5.0 0.00 0.00 0.00 37 1015.0
20260501204408 77 224 2.0 5.0 0.00 0.00 0.00 36 1015.0
20260501204352 77 51 2.0 5.0 0.00 0.00 0.00 36 1015.0
20260501204340 77 81 3.0 5.0 0.00 0.00 0.00 36 1015.1
20260501204318 76 84 2.0 5.0 0.00 0.00 0.00 37 1015.1
20260501204304 76 134 1.0 5.0 0.00 0.00 0.00 36 1015.1
20260501204252 76 298 2.0 5.0 0.00 0.00 0.00 36 1015.1
20260501203440 76 303 1.0 6.0 0.00 0.00 0.00 36 1015.1
20260501203403 76 298 1.0 6.0 0.00 0.00 0.00 37 1015.2
20260501203350 76 17 2.0 7.0 0.00 0.00 0.00 36 1015.2
20260501203338 76 34 3.0 7.0 0.00 0.00 0.00 37 1015.2
20260501203314 75 348 3.0 7.0 0.00 0.00 0.00 37 1015.2
20260501202742 75 81 2.0 7.0 0.00 0.00 0.00 37 1015.3
20260501202726 75 59 3.0 8.0 0.00 0.00 0.00 38 1015.3
20260501202702 75 351 3.0 8.0 0.00 0.00 0.00 37 1015.3
20260501202651 75 341 4.0 8.0 0.00 0.00 0.00 39 1015.3
20260501202636 75 324 4.0 8.0 0.00 0.00 0.00 37 1015.3
20260501202625 76 23 2.0 8.0 0.00 0.00 0.00 37 1015.3
20260501202343 76 14 3.0 8.0 0.00 0.00 0.00 37 1015.3
20260501202330 76 0 4.0 8.0 0.00 0.00 0.00 37 1015.3
20260501201529 75 277 2.0 6.0 0.00 0.00 0.00 37 1015.4
20260501201431 75 44 2.0 6.0 0.00 0.00 0.00 37 1015.4
20260501201329 75 341 2.0 6.0 0.00 0.00 0.00 39 1015.4
20260501201230 75 319 3.0 5.0 0.00 0.00 0.00 38 1015.4
20260501201129 75 20 3.0 5.0 0.00 0.00 0.00 37 1015.4
20260501201032 75 344 3.0 6.0 0.00 0.00 0.00 38 1015.4
20260501200940 75 5 3.0 6.0 0.00 0.00 0.00 38 1015.3
20260501200923 75 290 2.0 6.0 0.00 0.00 0.00 38 1015.3
20260501200911 75 30 2.0 6.0 0.00 0.00 0.00 37 1015.4
20260501200900 75 345 2.0 6.0 0.00 0.00 0.00 37 1015.4
20260501200835 75 352 2.0 6.0 0.00 0.00 0.00 38 1015.4
20260501200825 74 35 3.0 6.0 0.00 0.00 0.00 37 1015.4
20260501200332 74 0 3.0 6.0 0.00 0.00 0.00 37 1015.4
20260501200044 74 68 3.0 5.0 0.00 0.00 0.00 38 1015.5
20260501195724 74 352 2.0 5.0 0.00 0.00 0.00 37 1015.5
20260501195705 74 68 2.0 5.0 0.00 0.00 0.00 37 1015.5
20260501195642 74 346 3.0 5.0 0.00 0.00 0.00 36 1015.5
20260501195316 74 340 3.0 5.0 0.00 0.00 0.00 38 1015.5
20260501195215 74 44 2.0 6.0 0.00 0.00 0.00 37 1015.6
20260501195120 74 344 2.0 6.0 0.00 0.00 0.00 38 1015.6
20260501195014 74 34 3.0 6.0 0.00 0.00 0.00 37 1015.6
20260501194914 74 83 3.0 6.0 0.00 0.00 0.00 37 1015.6
20260501194813 74 329 3.0 6.0 0.00 0.00 0.00 39 1015.6
20260501194726 74 35 3.0 6.0 0.00 0.00 0.00 38 1015.5
20260501194711 74 331 2.0 6.0 0.00 0.00 0.00 38 1015.6
20260501194648 74 48 3.0 6.0 0.00 0.00 0.00 37 1015.7
20260501194636 74 5 4.0 6.0 0.00 0.00 0.00 37 1015.7
20260501194623 74 348 3.0 6.0 0.00 0.00 0.00 36 1015.7
20260501194351 74 344 4.0 6.0 0.00 0.00 0.00 38 1015.7
20260501194328 74 348 3.0 5.0 0.00 0.00 0.00 39 1015.7
20260501194052 74 10 1.0 5.0 0.00 0.00 0.00 40 1015.7
20260501193505 73 39 2.0 7.0 0.00 0.00 0.00 39 1015.7
20260501193404 73 335 2.0 7.0 0.00 0.00 0.00 40 1015.7
20260501193302 73 306 2.0 7.0 0.00 0.00 0.00 39 1015.7
20260501193205 73 277 2.0 7.0 0.00 0.00 0.00 39 1015.7
20260501193111 73 348 3.0 7.0 0.00 0.00 0.00 38 1015.8
20260501193015 73 15 3.0 7.0 0.00 0.00 0.00 39 1015.8
20260501192959 73 325 3.0 7.0 0.00 0.00 0.00 40 1015.7
20260501192947 73 352 3.0 7.0 0.00 0.00 0.00 41 1015.8
20260501192714 73 305 2.0 7.0 0.00 0.00 0.00 41 1015.8
20260501192650 73 279 2.0 4.0 0.00 0.00 0.00 41 1015.8
20260501192416 72 290 1.0 4.0 0.00 0.00 0.00 42 1015.8
20260501192405 72 352 2.0 4.0 0.00 0.00 0.00 42 1015.9
20260501192352 72 344 2.0 5.0 0.00 0.00 0.00 41 1015.8
20260501191844 72 325 2.0 6.0 0.00 0.00 0.00 41 1015.9
20260501191830 72 9 2.0 6.0 0.00 0.00 0.00 41 1016.0
20260501191504 71 331 2.0 6.0 0.00 0.00 0.00 41 1016.0
20260501191405 71 346 3.0 6.0 0.00 0.00 0.00 41 1016.0
20260501191306 71 299 4.0 6.0 0.00 0.00 0.00 40 1016.0
20260501191244 71 26 3.0 6.0 0.00 0.00 0.00 40 1016.0
20260501191232 71 350 2.0 6.0 0.00 0.00 0.00 42 1016.0
20260501190904 72 0 2.0 5.0 0.00 0.00 0.00 41 1016.1
20260501190802 72 348 2.0 5.0 0.00 0.00 0.00 41 1016.1
20260501190702 72 78 2.0 5.0 0.00 0.00 0.00 40 1016.1
20260501190607 72 79 1.0 5.0 0.00 0.00 0.00 41 1016.1
20260501190501 72 0 2.0 5.0 0.00 0.00 0.00 41 1016.1
20260501190403 72 267 3.0 5.0 0.00 0.00 0.00 41 1016.1
20260501190304 71 323 3.0 5.0 0.00 0.00 0.00 40 1016.1
20260501190203 71 345 2.0 5.0 0.00 0.00 0.00 42 1016.1
20260501190002 71 348 2.0 6.0 0.00 0.00 0.00 42 1016.2
20260501185904 71 5 2.0 6.0 0.00 0.00 0.00 41 1016.2
20260501185802 71 347 2.0 6.0 0.00 0.00 0.00 42 1016.2
20260501185704 71 321 2.0 6.0 0.00 0.00 0.00 42 1016.2
20260501185604 71 302 2.0 6.0 0.00 0.00 0.00 42 1016.2
20260501185501 71 25 2.0 6.0 0.00 0.00 0.00 41 1016.2
20260501185402 71 70 3.0 6.0 0.00 0.00 0.00 40 1016.2
20260501185301 71 46 3.0 6.0 0.00 0.00 0.00 39 1016.2
20260501185201 71 74 2.0 6.0 0.00 0.00 0.00 40 1016.2
20260501185101 71 62 2.0 5.0 0.00 0.00 0.00 43 1016.3
20260501185002 71 320 3.0 4.0 0.00 0.00 0.00 42 1016.3
20260501184906 71 18 2.0 4.0 0.00 0.00 0.00 42 1016.3
20260501184803 71 271 2.0 4.0 0.00 0.00 0.00 40 1016.2
20260501184744 71 259 2.0 4.0 0.00 0.00 0.00 42 1016.2
20260501184733 71 292 2.0 4.0 0.00 0.00 0.00 42 1016.3
20260501184403 70 86 2.0 4.0 0.00 0.00 0.00 40 1016.3
20260501184300 70 97 2.0 5.0 0.00 0.00 0.00 40 1016.3
20260501184203 70 23 2.0 5.0 0.00 0.00 0.00 40 1016.3
20260501184101 70 351 2.0 5.0 0.00 0.00 0.00 39 1016.4
20260501184005 70 348 1.0 5.0 0.00 0.00 0.00 40 1016.3
20260501183902 70 311 2.0 5.0 0.00 0.00 0.00 40 1016.4
20260501183806 70 76 2.0 5.0 0.00 0.00 0.00 41 1016.3
20260501183703 70 39 2.0 5.0 0.00 0.00 0.00 41 1016.3
20260501183601 70 348 2.0 5.0 0.00 0.00 0.00 42 1016.4
20260501183501 70 296 2.0 5.0 0.00 0.00 0.00 41 1016.4
20260501183404 70 306 2.0 5.0 0.00 0.00 0.00 42 1016.3
20260501183301 70 338 2.0 5.0 0.00 0.00 0.00 43 1016.4
20260501183205 69 323 1.0 5.0 0.00 0.00 0.00 44 1016.4
20260501183101 69 300 2.0 3.0 0.00 0.00 0.00 45 1016.4
20260501183004 69 350 2.0 3.0 0.00 0.00 0.00 43 1016.4
20260501182904 69 333 2.0 4.0 0.00 0.00 0.00 43 1016.4
20260501182830 69 261 2.0 5.0 0.00 0.00 0.00 43 1016.4
20260501182815 69 250 1.0 5.0 0.00 0.00 0.00 43 1016.4
20260501182804 69 280 2.0 5.0 0.00 0.00 0.00 44 1016.6
20260501182521 69 334 2.0 5.0 0.00 0.00 0.00 43 1016.4
20260501182508 69 304 1.0 5.0 0.00 0.00 0.00 43 1016.6
20260501182236 69 43 3.0 5.0 0.00 0.00 0.00 42 1016.6
20260501181903 69 340 2.0 6.0 0.00 0.00 0.00 42 1016.6
20260501181804 69 15 3.0 6.0 0.00 0.00 0.00 44 1016.6
20260501181701 69 324 3.0 6.0 0.00 0.00 0.00 44 1016.6
20260501181605 69 28 3.0 6.0 0.00 0.00 0.00 44 1016.6
20260501181501 69 352 2.0 6.0 0.00 0.00 0.00 43 1016.6
20260501181432 69 346 2.0 6.0 0.00 0.00 0.00 45 1016.6
20260501181418 69 299 4.0 6.0 0.00 0.00 0.00 47 1016.6
20260501181406 68 269 3.0 6.0 0.00 0.00 0.00 45 1016.6
20260501181123 68 352 2.0 5.0 0.00 0.00 0.00 47 1016.6
20260501180802 68 327 3.0 6.0 0.00 0.00 0.00 45 1016.6
20260501180702 68 19 2.0 6.0 0.00 0.00 0.00 47 1016.6
20260501180601 68 352 2.0 6.0 0.00 0.00 0.00 46 1016.6
20260501180501 68 80 2.0 6.0 0.00 0.00 0.00 45 1016.6
20260501180402 68 0 3.0 6.0 0.00 0.00 0.00 45 1016.6
20260501180303 68 13 4.0 6.0 0.00 0.00 0.00 45 1016.6
20260501180202 68 20 3.0 6.0 0.00 0.00 0.00 45 1016.6
20260501180101 68 339 2.0 6.0 0.00 0.00 0.00 45 1016.6
20260501180003 68 0 1.0 7.0 0.00 0.00 0.00 46 1016.6
20260501175906 67 352 1.0 7.0 0.00 0.00 0.00 45 1016.6
20260501175804 67 5 1.0 7.0 0.00 0.00 0.00 45 1016.6
20260501175701 67 289 1.0 7.0 0.00 0.00 0.00 46 1016.6
20260501175601 67 352 1.0 7.0 0.00 0.00 0.00 45 1016.6
20260501175501 67 351 2.0 7.0 0.00 0.00 0.00 47 1016.6
20260501175402 67 300 2.0 7.0 0.00 0.00 0.00 46 1016.7
20260501175333 67 86 3.0 7.0 0.00 0.00 0.00 46 1016.6
20260501175322 67 17 3.0 7.0 0.00 0.00 0.00 46 1016.6
20260501175310 67 227 2.0 7.0 0.00 0.00 0.00 45 1016.6
20260501175026 67 288 2.0 4.0 0.00 0.00 0.00 45 1016.6
20260501174703 67 296 2.0 5.0 0.00 0.00 0.00 44 1016.6
20260501174603 67 352 2.0 5.0 0.00 0.00 0.00 45 1016.6
20260501174503 67 352 2.0 5.0 0.00 0.00 0.00 45 1016.6
20260501174441 67 345 2.0 5.0 0.00 0.00 0.00 46 1016.6
20260501174429 67 327 2.0 5.0 0.00 0.00 0.00 47 1016.6
20260501174418 67 15 2.0 5.0 0.00 0.00 0.00 46 1016.6
20260501174401 67 319 1.0 5.0 0.00 0.00 0.00 46 1016.6
20260501174341 67 73 2.0 5.0 0.00 0.00 0.00 46 1016.6
20260501174329 67 223 3.0 5.0 0.00 0.00 0.00 46 1016.7
20260501174316 67 0 2.0 5.0 0.00 0.00 0.00 46 1016.7
20260501174304 67 352 2.0 4.0 0.00 0.00 0.00 49 1016.7
20260501173803 67 254 1.0 4.0 0.00 0.00 0.00 47 1016.7
20260501173533 66 285 2.0 4.0 0.00 0.00 0.00 48 1016.6
20260501173521 66 327 2.0 4.0 0.00 0.00 0.00 49 1016.7
20260501172702 66 63 2.0 3.0 0.00 0.00 0.00 48 1016.7
20260501172502 66 294 2.0 4.0 0.00 0.00 0.00 49 1016.7
20260501172404 66 26 2.0 4.0 0.00 0.00 0.00 50 1016.7
20260501172334 66 304 1.0 4.0 0.00 0.00 0.00 49 1016.7
20260501172309 66 29 1.0 4.0 0.00 0.00 0.00 51 1016.7
20260501172025 65 88 1.0 4.0 0.00 0.00 0.00 48 1016.7
20260501171702 65 329 2.0 4.0 0.00 0.00 0.00 49 1016.7
20260501171602 65 5 2.0 4.0 0.00 0.00 0.00 50 1016.7
20260501171501 65 292 1.0 4.0 0.00 0.00 0.00 49 1016.7
20260501171402 65 175 2.0 4.0 0.00 0.00 0.00 49 1016.7
20260501171335 64 96 2.0 4.0 0.00 0.00 0.00 49 1016.7
20260501171324 64 5 2.0 4.0 0.00 0.00 0.00 48 1016.7
20260501171012 64 317 2.0 4.0 0.00 0.00 0.00 52 1016.8
20260501170904 64 352 2.0 4.0 0.00 0.00 0.00 52 1016.7
20260501170802 64 311 2.0 4.0 0.00 0.00 0.00 51 1016.7
20260501170702 64 340 2.0 4.0 0.00 0.00 0.00 49 1016.8
20260501170601 64 348 1.0 5.0 0.00 0.00 0.00 50 1016.8
20260501170511 64 22 1.0 5.0 0.00 0.00 0.00 51 1016.8
20260501170432 63 242 1.0 5.0 0.00 0.00 0.00 50 1016.8
20260501170420 63 236 1.0 5.0 0.00 0.00 0.00 50 1016.8
20260501170059 63 335 2.0 5.0 0.00 0.00 0.00 50 1016.8
20260501165955 63 29 3.0 5.0 0.00 0.00 0.00 52 1016.9
20260501165855 63 325 3.0 5.0 0.00 0.00 0.00 51 1016.9
20260501165756 63 346 2.0 5.0 0.00 0.00 0.00 51 1016.9
20260501165653 63 25 1.0 5.0 0.00 0.00 0.00 51 1016.9
20260501165616 63 290 1.0 4.0 0.00 0.00 0.00 51 1016.9
20260501165554 63 300 1.0 4.0 0.00 0.00 0.00 53 1016.9
20260501165543 63 352 2.0 4.0 0.00 0.00 0.00 52 1016.9
20260501165310 63 5 2.0 4.0 0.00 0.00 0.00 51 1016.9
20260501164949 63 350 1.0 4.0 0.00 0.00 0.00 52 1016.9
20260501164848 63 280 2.0 4.0 0.00 0.00 0.00 51 1016.9
20260501164751 63 0 2.0 4.0 0.00 0.00 0.00 50 1017.0
20260501164648 63 349 2.0 4.0 0.00 0.00 0.00 51 1017.0
20260501164548 62 336 2.0 4.0 0.00 0.00 0.00 53 1016.9
20260501164447 62 11 1.0 3.0 0.00 0.00 0.00 53 1017.0
20260501164346 62 321 0.0 3.0 0.00 0.00 0.00 52 1017.0
20260501164247 62 252 1.0 3.0 0.00 0.00 0.00 52 1017.0
20260501164204 62 302 2.0 3.0 0.00 0.00 0.00 52 1017.0
20260501164149 62 311 2.0 3.0 0.00 0.00 0.00 55 1017.0
20260501164129 62 337 2.0 3.0 0.00 0.00 0.00 55 1017.1
20260501164115 62 340 2.0 3.0 0.00 0.00 0.00 54 1017.1
20260501164102 62 336 2.0 3.0 0.00 0.00 0.00 55 1017.0
20260501164049 62 346 1.0 3.0 0.00 0.00 0.00 55 1017.0
20260501164038 62 55 1.0 3.0 0.00 0.00 0.00 57 1017.1